Home > Weather > Shantou > Past weeks

Flag for China Past Weather in Shantou, Guangdong, China — Yesterday and Last 2 Weeks

Now
81 °F

Clear.


Feels Like: 86 °F
Forecast: 80 / 92 °F
Wind: No wind

Location: Shantou Airport

Current Time: Jul 29, 2016 at 10:18:19 PM

Latest Report: Jul 29, 2016 at 9:00 PM


Visibility: 10 mi

Pressure: 29.77 "Hg

Humidity: 84%

Dew Point: 75 °F

Location of ShantouLocation

Past Weather in Shantou — Graph

°F

Shantou Temperature Yesterday

Maximum temperature yesterday: 100 °F (at 3:00 PM)
Minimum temperature yesterday: 79 °F (at 5:00 AM)
Average temperature yesterday: 89 °F

High & Low Weather Summary for the Past Weeks

 TemperatureHumidityPressure
High100 °F (Jul 28, 3:00 PM)100% (Jul 15, 4:00 AM)29.92 "Hg (Jul 15, 4:00 AM)
Low77 °F (Jul 20, 5:00 AM)37% (Jul 28, 1:00 PM)29.65 "Hg (Jul 15, 4:00 PM)
Average87 °F77%29.78 "Hg
* Reported Jul 14 9:00 PM — Jul 29 9:00 PM, Shantou, Weather by CustomWeather, © 2016

Note: Actual official high and low records may vary slightly from our data, if they occured in-between our weather recording intervals... More about our weather records

Advertising

Shantou Weather History for the Previous 24 Hours

Scroll right to see more
 ConditionsComfort  
Time TempWeatherWind HumidityBarometerVisibility
9:00 PM
Fri, Jul 29
81 °FClear.No wind84%29.77 "Hg10 mi
8:00 PM81 °FClear.1 mph84%29.77 "Hg10 mi
7:00 PM81 °FPassing clouds.3 mph79%29.74 "HgN/A
6:00 PM81 °FPassing clouds.8 mph79%29.74 "HgN/A
5:00 PM82 °FScattered clouds.10 mph74%29.74 "HgN/A
4:00 PM82 °FThunderstorms. Broken clouds.3 mph79%29.77 "Hg5 mi
3:00 PM90 °FThunderstorms. Broken clouds.8 mph71%29.71 "HgN/A
2:00 PM100 °FThunderstorms. Scattered clouds.6 mph45%29.71 "HgN/A
1:00 PM100 °FPassing clouds.3 mph42%29.74 "HgN/A
12:00 PM99 °FPassing clouds.1 mph47%29.77 "HgN/A
11:00 AM95 °FPassing clouds.3 mph50%29.77 "HgN/A
10:00 AM93 °FPassing clouds.3 mph56%29.77 "HgN/A
9:00 AM90 °FPassing clouds.3 mph67%29.77 "HgN/A
8:00 AM88 °FClear.1 mph75%29.77 "Hg4 mi
7:00 AM86 °FFog.1 mph79%29.77 "Hg3 mi
6:00 AM81 °FFog.1 mph94%29.74 "Hg3 mi
5:00 AM81 °FClear.No wind94%29.74 "Hg5 mi
4:00 AM82 °FClear.1 mph89%29.71 "Hg10 mi
3:00 AM82 °FClear.No wind89%29.71 "Hg10 mi
2:00 AM82 °FClear.No wind89%29.74 "Hg10 mi
1:00 AM84 °FClear.3 mph89%29.77 "Hg10 mi
12:00 AM86 °FClear.1 mph84%29.77 "Hg10 mi
11:00 PM
Thu, Jul 28
88 °FPassing clouds.3 mph75%29.80 "HgN/A
10:00 PM86 °FClear.6 mph79%29.80 "Hg10 mi
Weather by CustomWeather, © 2016

See weather overviewHow to use our weather pages